Regional Weather Roundup
Issued by NWS

Home | Current Version | Previous Version | Text Only | Print | Product List | Glossary Off
Versions: 1 2 3 4 5 6 7 8 9 10 11 12 13 14 15 16 17 18 19 20 21 22 23 24 25 26 27 28 29 30 31 32 33 34 35 36 37 38 39 40 41 42 43 44 45 46 47 48 49 50

418
ASUS43 KLOT 211712
RWRIL

ILLINOIS REGIONAL WEATHER ROUNDUP
NATIONAL WEATHER SERVICE CHICAGO/ROMEOVILLE IL
1100 AM CST TUE FEB 21 2017

NOTE: "FAIR" INDICATES FEW OR NO CLOUDS BELOW 12,000 FEET WITH NO
SIGNIFICANT WEATHER AND/OR OBSTRUCTIONS TO VISIBILITY.

* THESE STATIONS ARE NOT UNDER NWS QUALITY CONTROL. THEY ALSO MAY NOT
  REPORT WEATHER SUCH AS PRECIPITATION OR FOG.

ILZ001-002-007-009-015-016-024-211800-
NORTHWEST ILLINOIS

CITY           SKY/WX    TMP DP  RH WIND       PRES   REMARKS
MOLINE         MOSUNNY   60  44  55 CALM      29.96F
SAVANNA*       SUNNY     52  44  75 CALM      29.96S
$$

ILZ003-004-008-010-011-017-018-211800-
NORTH CENTRAL ILLINOIS

CITY           SKY/WX    TMP DP  RH WIND       PRES   REMARKS
ROCKFORD       PTSUNNY   55  47  74 CALM      29.97S
FREEPORT*      MOSUNNY   51  45  77 CALM      29.97F
ROCHELLE*      MOSUNNY   56  49  77 CALM      29.97R
DE KALB*       CLOUDY    56  52  86 SW3       29.96S
PERU*          CLOUDY    56  55  93 CALM      29.97S FOG
$$

ILZ005-006-012>014-019>023-211800-
NORTHEAST ILLINOIS

CITY           SKY/WX    TMP DP  RH WIND       PRES   REMARKS
CHICAGO-OHARE  CLOUDY    60  55  83 SW7       29.94S
CHICAGO-MIDWAY CLOUDY    60  55  83 SW7       29.95S
AURORA         CLOUDY    59  56  89 SW3       29.96R
LANSING*       CLOUDY    59  57  93 SW7       29.96S
JOLIET*        CLOUDY    62  58  87 SW3       29.96F
WAUKEGAN       CLOUDY    58  51  78 VRB3      29.93S
DUPAGE AIRPORT CLOUDY    58  54  86 SW7       29.95S
KANKAKEE*      CLOUDY    56  55  96 CALM      29.98R
WHEELING       CLOUDY    58  54  86 SW6       29.95S
MORRIS*        CLOUDY    60  56  88 CALM      29.95F
ROMEOVILLE*    CLOUDY    59  59  97 W8        29.96S
NORTHERLY ISL    N/A     59  53  80 S5          N/A
$$

LMZ740>746-211800-
SOUTHERN LAKE MICHIGAN

STATION/POSITION SKY/WX   TEMP    WIND        PRES    VSBY  WAVE
                          AIR SEA DIR/SP/G                  HT/PER
                          (F)     (DEG/KT/KT) (MB)    (MI)  (FT/S)
HARRISON CRIB              59     230/  3/  3   N/A
BURNHAM HARBOR             58     180/  5/  9   N/A
CALUMET HARBOR             60     230/  4/  8 1013.8F
BURNS HARBOR               56     200/  8/ 10 1014.9S
MICHIGAN CITY              57     150/  8/  9   N/A
$$

ILZ025>027-034>036-040-047-049-050-058-095>099-211800-
WEST-CENTRAL ILLINOIS

CITY           SKY/WX    TMP DP  RH WIND       PRES   REMARKS
QUINCY         CLOUDY    58  57  97 CALM      29.96R FOG
GALESBURG*     CLOUDY    55  51  84 CALM      29.97F
MACOMB*        CLOUDY    58  57  99 N7        29.99S FOG
JACKSONVILLE*  CLOUDY    60  58  94 SE8       29.96R
PITTSFIELD*    CLOUDY    61  59  94 E5        29.97R
$$

ILZ028>032-037-038-041>044-048-051>054-059>061-211800-
CENTRAL ILLINOIS

CITY           SKY/WX    TMP DP  RH WIND       PRES   REMARKS
PONTIAC        MOSUNNY   63  60  91 SW3       29.96F
BLOOMINGTON    CLOUDY    60  57  89 SE12      29.97R
DECATUR        CLOUDY    59  55  87 E7        29.95S
PEORIA         CLOUDY    63  58  83 CALM      29.95F
LACON*         CLOUDY    58  57  97 N6        29.96S FOG
LINCOLN*       CLOUDY    60  58  94 E3        29.97S
SPRINGFIELD    CLOUDY    60  57  89 E3        29.97R
TAYLORVILLE    CLOUDY    58  55  88 CALM      29.97R
$$

ILZ033-039-045-046-055>057-062-063-211800-
EAST-CENTRAL ILLINOIS

CITY           SKY/WX    TMP DP  RH WIND       PRES   REMARKS
CHAMPAIGN      LGT RAIN  58  54  86 SE8       29.96F
RANTOUL*       CLOUDY    59  56  91 N3        29.96S
MATTOON        LGT RAIN  56  54  93 S8        29.96F
PARIS*         DRIZZLE   57  53  87 S7        29.99S
$$

ILZ079-100>102-211800-
SOUTHWEST ILLINOIS

CITY           SKY/WX    TMP DP  RH WIND       PRES   REMARKS
ALTON          DRIZZLE   59  57  94 E7        29.95R FOG
BELLEVILLE     LGT RAIN  57  57 100 E8        29.93S
CAHOKIA*       LGT RAIN  61  56  83 SE7       29.94R
SPARTA*        LGT RAIN  60  53  77 SE8       29.95S
$$

ILZ064>066-069>071-074>076-080>082-084>086-088>090-092>094-211800-
SOUTH-CENTRAL ILLINOIS

CITY           SKY/WX    TMP DP  RH WIND       PRES   REMARKS
CARBONDALE     CLOUDY    61  51  70 E7        29.93F
CAIRO*         CLOUDY    61  54  75 NE3       29.93R
EFFINGHAM*     RAIN      56  56 100 E6        29.98S
MARION         CLOUDY    61  55  82 E6        29.95S
MT. VERNON     LGT RAIN  60  51  72 NE6       29.95F
CENTRALIA*     CLOUDY    61  53  74 E5        29.95S
SALEM*         LGT RAIN  60  51  72 SE5       29.96S
METROPOLIS*    CLOUDY    63  54  74 CALM      29.94R
$$

ILZ067-068-072-073-078-083-087-091-211800-
SOUTHEAST ILLINOIS

CITY           SKY/WX    TMP DP  RH WIND       PRES   REMARKS
LAWRENCEVILLE  CLOUDY    62  49  62 S8        29.98S
FLORA*         CLOUDY    60  51  70 CALM      29.97F
FAIRFIELD*     LGT RAIN  61  51  70 CALM      29.95S
HARRISBURG*    DRIZZLE   60  53  76 CALM      29.96F
ROBINSON*      CLOUDY    58  49  73 CALM      29.99F
CARMI*         CLOUDY    61  53  74 E7        29.96F
$$

ABBREVIATIONS USED IN REMARKS
   TC - TEMPERATURE IN CELSIUS
  WCI - WIND CHILL INDEX
   HX - HEAT INDEX
  VSB - VISIBILITY
$$





USA.gov is the U.S. government's official web portal to all federal, state and local government web resources and services.